HLLCT11 YAMB-YAMB

Flight info

Callsign HLLCT11
Flight time N/A
Altitude 1000
Route N/A
Aircraft F18S/M-SDGRY/S

Departure

Time 2026-04-25 02:04
Airport RAAF Base Amberley (YAMB)

Arrival

Time N/A
Airport RAAF Base Amberley (YAMB)
Time Latitude Longitude Altitude Speed Heading
2026-04-25 01:50 -27.63407 152.70603 93 ft 0 kts 159°
2026-04-25 01:56 -27.63426 152.70612 94 ft 0 kts 159°
2026-04-25 01:56 -27.63429 152.70616 94 ft 6 kts 130°
2026-04-25 01:56 -27.63412 152.70694 93 ft 15 kts 70°
2026-04-25 01:56 -27.63357 152.70820 93 ft 15 kts 31°
2026-04-25 01:57 -27.63185 152.70757 92 ft 19 kts 340°
2026-04-25 01:57 -27.63040 152.70695 92 ft 26 kts 342°
2026-04-25 01:57 -27.62890 152.70626 92 ft 21 kts 337°
2026-04-25 01:58 -27.62762 152.70568 93 ft 19 kts 339°
2026-04-25 01:58 -27.62651 152.70515 92 ft 17 kts 337°
2026-04-25 01:58 -27.62551 152.70474 92 ft 14 kts 342°
2026-04-25 01:58 -27.62466 152.70438 93 ft 12 kts 339°
2026-04-25 01:59 -27.62394 152.70407 92 ft 10 kts 338°
2026-04-25 01:59 -27.62337 152.70381 93 ft 8 kts 340°
2026-04-25 01:59 -27.62293 152.70363 94 ft 6 kts 348°
2026-04-25 01:59 -27.62262 152.70362 91 ft 3 kts
2026-04-25 02:00 -27.62247 152.70363 93 ft 0 kts
2026-04-25 02:00 -27.62247 152.70364 93 ft 0 kts 13°
2026-04-25 02:00 -27.62241 152.70367 90 ft 3 kts 28°
2026-04-25 02:00 -27.62221 152.70395 93 ft 0 kts 67°
2026-04-25 02:01 -27.62216 152.70417 91 ft 7 kts 74°
2026-04-25 02:01 -27.62195 152.70497 91 ft 14 kts 84°
2026-04-25 02:02 -27.62335 152.70604 91 ft 89 kts 158°
2026-04-25 02:02 -27.63623 152.71156 155 ft 299 kts 158°
2026-04-25 02:02 -27.65940 152.72166 362 ft 402 kts 158°
2026-04-25 02:02 -27.68730 152.73152 549 ft 427 kts 167°
2026-04-25 02:03 -27.71678 152.73758 606 ft 433 kts 169°
2026-04-25 02:03 -27.74666 152.74338 658 ft 438 kts 169°
2026-04-25 02:03 -27.77707 152.74926 492 ft 446 kts 169°
2026-04-25 02:03 -27.80775 152.75506 570 ft 448 kts 169°
2026-04-25 02:04 -27.83853 152.75997 792 ft 444 kts 171°
2026-04-25 02:04 -27.86903 152.76483 1116 ft 440 kts 171°
2026-04-25 02:04 -27.89942 152.76962 1278 ft 442 kts 171°
2026-04-25 02:04 -27.92983 152.77440 1409 ft 442 kts 171°
2026-04-25 02:05 -27.96024 152.77915 1525 ft 438 kts 172°
2026-04-25 02:05 -27.99037 152.78388 1691 ft 437 kts 171°
2026-04-25 02:05 -28.02025 152.78857 1859 ft 438 kts 170°
2026-04-25 02:05 -28.05054 152.79339 1859 ft 442 kts 170°
2026-04-25 02:06 -28.07826 152.80123 1752 ft 381 kts 163°
2026-04-25 02:06 -28.10426 152.80974 1723 ft 397 kts 161°
2026-04-25 02:06 -28.13120 152.81875 1707 ft 411 kts 162°
2026-04-25 02:06 -28.15896 152.82800 1666 ft 421 kts 162°
2026-04-25 02:07 -28.18740 152.83737 1624 ft 430 kts 162°
2026-04-25 02:07 -28.21672 152.84698 833 ft 447 kts 163°
2026-04-25 02:07 -28.24568 152.85687 917 ft 432 kts 162°
2026-04-25 02:07 -28.27451 152.86625 1241 ft 428 kts 164°
2026-04-25 02:08 -28.30236 152.87504 2247 ft 392 kts 163°
2026-04-25 02:08 -28.32785 152.88240 2561 ft 369 kts 164°
2026-04-25 02:08 -28.35213 152.88962 2551 ft 353 kts 163°
2026-04-25 02:08 -28.37557 152.89636 2438 ft 343 kts 164°
2026-04-25 02:09 -28.39395 152.89547 1362 ft 231 kts 244°
2026-04-25 02:09 -28.40615 152.89051 907 ft 215 kts 169°
2026-04-25 02:09 -28.42247 152.89318 1111 ft 261 kts 181°
2026-04-25 02:09 -28.44201 152.88826 1046 ft 314 kts 182°
2026-04-25 02:10 -28.46448 152.89412 1013 ft 356 kts 150°
2026-04-25 02:10 -28.48272 152.91475 987 ft 392 kts 120°
2026-04-25 02:10 -28.49418 152.94414 923 ft 423 kts 118°
2026-04-25 02:10 -28.51313 152.97017 1161 ft 430 kts 154°
2026-04-25 02:11 -28.54310 152.97424 723 ft 414 kts 178°
2026-04-25 02:11 -28.57030 152.97651 526 ft 392 kts 166°
2026-04-25 02:11 -28.59674 152.98521 377 ft 410 kts 162°
2026-04-25 02:11 -28.62355 152.99685 562 ft 413 kts 156°
2026-04-25 02:12 -28.62751 152.98754 1096 ft 244 kts 36°
2026-04-25 02:12 -28.62118 153.00466 851 ft 229 kts 158°
2026-04-25 02:12 -28.63904 153.00055 620 ft 323 kts 195°
2026-04-25 02:12 -28.66394 152.99299 599 ft 413 kts 186°
2026-04-25 02:13 -28.69510 152.99524 560 ft 484 kts 169°
2026-04-25 02:13 -28.73053 153.00247 303 ft 545 kts 169°
2026-04-25 02:13 -28.76484 153.00947 295 ft 393 kts 169°
2026-04-25 02:13 -28.79103 153.01448 469 ft 380 kts 170°
2026-04-25 02:14 -28.81708 153.01935 625 ft 380 kts 169°
2026-04-25 02:14 -28.84227 153.02732 425 ft 381 kts 153°
2026-04-25 02:14 -28.86066 153.04754 363 ft 373 kts 120°
2026-04-25 02:14 -28.87369 153.07359 422 ft 372 kts 110°
2026-04-25 02:15 -28.87669 153.10283 336 ft 376 kts 84°
2026-04-25 02:15 -28.86897 153.13068 336 ft 368 kts 70°
2026-04-25 02:15 -28.85818 153.15635 452 ft 351 kts 57°
2026-04-25 02:15 -28.84256 153.17705 579 ft 336 kts 45°
2026-04-25 02:16 -28.82667 153.19556 898 ft 322 kts 48°
2026-04-25 02:16 -28.81118 153.21385 796 ft 324 kts 46°
2026-04-25 02:16 -28.79917 153.23516 891 ft 319 kts 76°
2026-04-25 02:16 -28.79876 153.26026 476 ft 326 kts 117°
2026-04-25 02:17 -28.81013 153.28309 263 ft 330 kts 120°
2026-04-25 02:17 -28.82100 153.30481 1265 ft 305 kts 120°
2026-04-25 02:17 -28.82796 153.31859 1609 ft 296 kts 133°
2026-04-25 02:17 -28.83824 153.31531 283 ft 155 kts 238°
2026-04-25 02:18 -28.84268 153.29859 1224 ft 263 kts 266°
2026-04-25 02:18 -28.84462 153.28139 773 ft 403 kts 265°
2026-04-25 02:18 -28.82058 153.26826 366 ft 513 kts
2026-04-25 02:18 -28.81934 153.27884 480 ft 418 kts 265°
2026-04-25 02:19 -28.80251 153.27975 2247 ft 142 kts 18°
2026-04-25 02:19 -28.78853 153.28275 6528 ft 338 kts 16°